Location: Newark
(48.5178°N, 4.2361°E)
Time: 03:45:38
(UTC+00:00)

ISS - Pass Details

Date: 22 January 2021
Orbit: 417 x 422 km, 51.6° (Epoch: 08 March)

Event Time Altitude Azimuth Distance (km) Brightness Sun altitude
Rises 17:41:18 0° 229° (SW) 2,362 1.3 -12.3°
Reaches altitude 10° 17:43:26 10° 223° (SW) 1,502 0.0 -12.7°
Maximum altitude 17:46:41 46° 149° (SSE) 576 -3.2 -13.2°
Enters shadow 17:48:18 25° 88° (E) 902 -2.7 -13.4°
